Zurück zum Katalog

CZ-6A DEB

AktivPO
NORAD 60711·DEBRIS·🇨🇳 China

Gestartet Aug 6, 2024 von Taiyuan Satellite Launch Center

Loading…

Nächste Überflüge (nächste 24 Stunden)

TLE

AktuellSource: Space-Track

Epoche: Sep 14, 2026, 10:14 UTC

1 60711U 24140DQ  26257.42665369  .00000809  00000-0  25026-3 0  9994
2 60711  88.8456 247.7932 0064649  56.8119 303.9259 14.39121996109702

Verfolge CZ-6A DEB in Echtzeit mit AllMySat

Download on the App Store